Location: Winthrop
(48.4780°N, 120.1850°W)
Time: 07:02:46
(UTC-08:00)

Vanguard 1 Rocket - All Passes

Search period start: 29 January 2023 00:00
Search period end: 08 February 2023 00:00
Orbit: 650 x 4225 km, 34.3° (Epoch: 29 January)

Date Brightness Start Highest point End Pass type
(mag) Time Alt. Az. Time Alt. Az. Time Alt. Az.
29 Jan - 10:37:09 10° SE 10:41:56 13° ESE 10:47:46 10° ESE daylight
29 Jan - 12:54:05 10° SSW 13:05:53 39° SSE 13:25:23 10° E daylight
29 Jan - 15:17:34 10° WSW 15:33:44 54° S 15:58:07 10° ESE daylight
29 Jan - 17:44:03 10° W 18:03:45 47° SSW 18:27:11 10° SE visible
29 Jan - 20:14:50 10° W 20:32:27 26° SW 20:49:44 10° S visible
30 Jan - 11:44:49 10° S 11:54:13 28° SE 12:09:01 10° E daylight
30 Jan - 14:06:31 10° SW 14:20:16 50° SSE 14:42:56 10° E daylight
30 Jan - 16:31:39 10° W 16:49:34 51° S 17:13:58 10° SE daylight
30 Jan - 18:59:58 10° W 19:19:09 34° SW 19:39:50 10° SSE visible
30 Jan - 21:39:28 10° WSW 21:46:01 12° WSW 21:52:27 10° SW visible
31 Jan - 10:37:13 10° SSE 10:43:21 16° SE 10:51:35 10° E daylight
31 Jan - 12:56:10 10° SW 13:07:37 42° SSE 13:27:13 10° E daylight
31 Jan - 15:19:58 10° WSW 15:35:36 53° S 15:59:41 10° ESE daylight
31 Jan - 17:46:34 10° W 18:05:20 42° SSW 18:28:13 10° SE visible
31 Jan - 20:18:23 10° W 20:33:36 21° SW 20:48:59 10° S visible
01 Feb - 11:46:36 10° SSW 11:55:52 31° SE 12:11:09 10° E daylight
01 Feb - 14:08:53 10° WSW 14:22:10 50° S 14:44:35 10° ESE daylight
01 Feb - 16:34:09 10° W 16:51:20 48° SSW 17:15:14 10° SE daylight
01 Feb - 19:02:50 10° W 19:20:30 29° SW 19:40:01 10° S visible
02 Feb - 10:38:14 10° S 10:44:54 19° SE 10:54:32 10° E daylight
02 Feb - 12:58:25 10° SW 13:09:30 44° SSE 13:28:59 10° E daylight
02 Feb - 15:22:27 10° WSW 15:37:29 51° S 16:01:07 10° ESE daylight
02 Feb - 17:49:13 10° W 18:06:55 37° SSW 18:28:54 10° SSE visible
02 Feb - 20:23:01 10° W 20:34:46 16° SW 20:46:54 10° SSW visible
03 Feb - 11:48:37 10° SSW 11:57:40 34° SSE 12:13:09 10° E daylight
03 Feb - 14:11:20 10° WSW 14:24:09 50° S 14:46:09 10° ESE daylight
03 Feb - 16:36:43 10° W 16:53:07 44° SSW 17:16:15 10° SE daylight
03 Feb - 19:06:06 10° W 19:21:52 24° SW 19:39:35 10° S visible
04 Feb - 10:39:44 10° S 10:46:36 23° SE 10:57:05 10° E daylight
04 Feb - 13:00:47 10° SW 13:11:30 45° SSE 13:30:41 10° ESE daylight
04 Feb - 15:25:00 10° WSW 15:39:27 48° S 16:02:23 10° SE daylight
04 Feb - 17:52:04 10° W 18:08:29 32° SSW 18:29:11 10° SSE visible
04 Feb - 20:30:58 10° WSW 20:36:01 11° SW 20:41:10 10° SW visible
05 Feb - 09:33:27 10° SE 09:36:10 11° SE 09:39:17 10° ESE daylight
05 Feb - 11:50:49 10° SW 11:59:36 37° SSE 12:15:03 10° E daylight
05 Feb - 14:13:52 10° WSW 14:26:12 49° S 14:47:36 10° ESE daylight
05 Feb - 16:39:24 10° W 16:54:55 39° SSW 17:16:58 10° SE daylight
05 Feb - 19:10:02 10° W 19:23:17 19° SW 19:38:13 10° S visible
06 Feb - 10:41:35 10° SSW 10:48:26 26° SE 10:59:24 10° E daylight
06 Feb - 13:03:15 10° WSW 13:13:35 46° S 13:32:19 10° ESE daylight
06 Feb - 15:27:38 10° W 15:41:25 44° SSW 16:03:26 10° SE daylight
06 Feb - 17:55:12 10° W 18:10:07 27° SW 18:28:55 10° S visible
07 Feb - 09:33:51 10° SSE 09:37:55 14° SE 09:43:09 10° ESE daylight
07 Feb - 11:53:09 10° SW 12:01:39 39° SSE 12:16:54 10° E daylight
07 Feb - 14:16:29 10° WSW 14:28:19 46° S 14:48:55 10° ESE daylight
07 Feb - 16:42:16 10° W 16:56:45 34° SSW 17:17:20 10° SSE daylight
07 Feb - 19:15:22 10° WSW 19:24:46 14° SW 19:35:08 10° SSW visible
